Weather Service Report


854 
ASUS44 KOUN 030010
RWROK 

WEATHER ROUNDUP FOR OKLAHOMA
NATIONAL WEATHER SERVICE NORMAN OK
700 PM CDT THU JUL 02 2015

NOTE: "FAIR" INDICATES FEW OR NO CLOUDS BELOW 12,000 FEET WITH NO
      SIGNIFICANT WEATHER AND/OR OBSTRUCTIONS TO VISIBILITY.

OKZ001>007-009>012-014-015-017-030100-
NORTHWEST OKLAHOMA AND THE PANHANDLE
  
CITY           SKY/WX    TMP DP  RH WIND       PRES   REMARKS
GAGE           CLOUDY    76  69  79 NE18G28   29.95R                  
6HR MIN TEMP:  76; 6HR MAX TEMP:  92;                                

GUYMON         MOSUNNY   90  58  33 N10       29.94F                  
ENID/WOODRING  PTSUNNY   81  72  74 NE14G23   29.86F                  
$$

OKZ016-021>023-033>039-044-045-030100-
SOUTHWEST OKLAHOMA
  
CITY           SKY/WX    TMP DP  RH WIND       PRES   REMARKS
LAWTON/REGL    PTSUNNY   89  67  47 S12       29.83F HX  92           
6HR MIN TEMP:  85; 6HR MAX TEMP:  93; 6HR PCP: TRACE;                

LAWTON/FT SILL PTSUNNY   88  69  53 S13       29.82F HX  92           
FREDERICK      CLOUDY    91  67  44 S15       29.82F HX  94           
CLINTON        MOSUNNY   88  69  53 SW12      29.90F HX  92           
HOBART         MOSUNNY   88  72  58 SW10      29.86F HX  94           
ALTUS AFB      PTSUNNY   91  69  48 S16G22    29.84F HX  95           
$$

OKZ018>020-024>031-030100-
CENTRAL OKLAHOMA
  
CITY           SKY/WX    TMP DP  RH WIND       PRES   REMARKS
OKLAHOMA CITY  CLOUDY    85  72  65 S10       29.87F HX  91           
6HR MIN TEMP:  85; 6HR MAX TEMP:  93;                                

OKC/WILEY POST CLOUDY    87  71  58 SW8       29.86F HX  93           
OKC/TINKER AFB CLOUDY    84  72  66 S9        29.86F HX  90           
STILLWATER     CLOUDY    78  68  71 NE10      29.86F                  
GUTHRIE        TSTM      74  69  85 S12G22    29.87R VSB 1/2          
$$

OKZ008-013-054>072-030100-
NORTHEAST OKLAHOMA
  
CITY           SKY/WX    TMP DP  RH WIND       PRES   REMARKS
TULSA          TSTM      73  68  84 S13G20    29.84S                  
6HR MIN TEMP:  73; 6HR MAX TEMP:  94; 6HR PCP:  0.40;                

TULSA/JONES    CLOUDY    83  70  64 N5        29.82F THUNDER          
PONCA CITY     PTSUNNY   83  69  62 NE8       29.85F                  
BARTLESVILLE   CLOUDY    82  74  76 N9        29.86F                  
MUSKOGEE       TSTM      72  67  84 NE25G38   29.90R                  
$$

OKZ032-040>043-046>053-073>077-030100-
SOUTH CENTRAL/SOUTHEAST OKLAHOMA
  
CITY           SKY/WX    TMP DP  RH WIND       PRES   REMARKS
ARDMORE/DWNTWN CLOUDY    86  68  54 SW5       29.86F                  
MCALESTER      CLOUDY    83  73  72 S6        29.87F                  
$$


Return to Home page


Western Regional Climate Center, wrcc@dri.edu